Simultaneous Nadir Overpasses (SNOs) Predictions

Prediction of SNOs between GOES-14 and AQUA Satellite Orbit:

Table of predicted SNOs for the next 14.0 days since TLE Epoch: 12/27/2019
Index Date Time (GOES-14) GOES-14 Lat,Lon AQUA Lat,Lon Distance(km) Time Diff (sec)
1 12/28/2019 08:14:37 0.00,-104.29 -0.86,-100.25 459.25 80
2 12/28/2019 20:36:01 0.01,-104.04 -0.27,-105.44 158.84 80
3 12/30/2019 20:26:29 0.01,-104.04 0.32,-102.47 177.78 80
4 12/31/2019 08:47:46 -0.02,-104.30 0.68,-107.65 380.16 80
5 01/02/2020 08:35:34 -0.01,-104.31 0.09,-104.68 43.36 80
6 01/04/2020 08:20:43 -0.01,-104.31 -0.57,-101.73 293.66 80
7 01/04/2020 20:42:07 0.02,-104.05 -0.57,-106.92 325.59 80
8 01/06/2020 20:32:35 0.01,-104.05 0.03,-103.95 11.41 80
9 01/08/2020 20:20:23 0.01,-104.05 0.63,-100.98 348.14 80
10 01/09/2020 08:41:40 -0.01,-104.32 0.35,-106.16 208.96 80




NCC Satellite Simultaneous Nadir Overpasses (SNOs) Prediction Service
